User: anonymous   Login
Location: Unspecified
(0.0000°N, 0.0000°E)
Time: 13:13:30
(UTC+00:00)
Language:

Gurwin Techsat 1B - Orbit

View from above orbital plane
View from above orbital plane
View from above satellite
View from above satellite

Ground track
Ground track

The orbit data is extracted from the following two-line orbital elements,

1 25397U 98043D   21015.83026129 -.00000010  00000-0  15249-4 0  9997
2 25397  98.7543 321.9498 0001837 130.3268 229.8071 14.23699281169776
Epoch (UTC): 15 January 2021 19:55:34
Eccentricity: 0.0001837
inclination: 98.7543°
perigee height: 811 km
apogee height: 814 km
right ascension of ascending node: 321.9498°
argument of perigee: 130.3268°
revolutions per day: 14.23699281
mean anomaly at epoch: 229.8071°
orbit number at epoch: 16977

The dashed part of the orbit path shows where the satellite is in the earth's shadow,  

DLR